Torna al catalogo

KNACKSAT

AttivoScienzaSSO
NORAD 43806·PAYLOAD·🇹🇭 Thailand
Questo nome del satellite non è ancora stato confermato da fonti ufficiali.

Lanciato Dec 3, 2018 da Vandenberg Space Force Base

Loading…

Prossimi Passaggi (prossime 24 ore)

TLE

AggiornatoSource: Space-Track

Epoca: Sep 14, 2026, 01:36 UTC

1 43806U 18099BA  26257.06709200  .00004421  00000-0  22970-3 0  9998
2 43806  97.3895 302.2334 0007771  31.8336 328.3366 15.16571991425903

Traccia KNACKSAT in tempo reale con AllMySat

Download on the App Store